CW2939 Weather Reports


Display with metric or nautical units.
time (UTC)temp
F
wind
direction
speed
MPH
gust
MPH
rain 1hr
in
rain 24hr
in
rain mn
in
humidity
%
barometer
mb
20260503234905 61 266 3.0 3.0 0.00 0.00 0.00 84 1013.6
20260503234404 61 262 2.0 3.0 0.00 0.00 0.00 85 1013.7
20260503233404 61 247 2.0 3.0 0.00 0.00 0.00 85 1013.8
20260503231905 61 293 0.0 2.0 0.00 0.00 0.00 85 1014.0
20260503230904 61 52 0.0 1.0 0.00 0.00 0.00 86 1014.0
20260503224404 61 131 0.0 0.0 0.00 0.00 0.00 85 1014.0
20260503223904 61 145 0.0 2.0 0.00 0.00 0.00 85 1014.0
20260503221404 62 102 0.0 1.0 0.00 0.00 0.00 83 1013.9
20260503220904 62 102 1.0 2.0 0.00 0.00 0.00 82 1014.0
20260503220404 63 206 1.0 2.0 0.00 0.00 0.00 81 1014.0
20260503214904 63 213 1.0 3.0 0.00 0.00 0.00 81 1014.1
20260503214404 63 232 2.0 3.0 0.00 0.00 0.00 81 1014.0
20260503213905 63 105 2.0 2.0 0.00 0.00 0.00 82 1014.0
20260503213404 63 105 2.0 3.0 0.00 0.00 0.00 82 1013.9
20260503211404 63 114 3.0 3.0 0.00 0.00 0.00 80 1013.9
20260503210905 64 101 0.0 3.0 0.00 0.00 0.00 79 1013.8
20260503204904 64 65 0.0 0.0 0.00 0.00 0.00 80 1013.7
20260503190904 67 216 2.0 3.0 0.00 0.00 0.00 73 1012.8
20260503190404 67 221 3.0 3.0 0.00 0.00 0.00 73 1012.7
20260503181904 67 111 6.0 7.0 0.00 0.00 0.00 73 1012.5
20260503180404 68 101 4.0 12.0 0.00 0.00 0.00 72 1012.7
20260503174904 68 92 9.0 10.0 0.00 0.00 0.00 70 1012.8
20260503173904 68 60 6.0 9.0 0.00 0.00 0.00 70 1012.8
20260503171404 69 107 6.0 9.0 0.00 0.00 0.00 68 1012.9
20260503170404 69 101 5.0 9.0 0.00 0.00 0.00 70 1013.1
20260503150904 69 18 2.0 12.0 0.00 0.00 0.00 71 1013.4
20260503150404 69 140 6.0 18.0 0.00 0.00 0.00 70 1013.5
20260503131404 69 128 9.0 20.0 0.00 0.00 0.00 72 1014.6
20260503130404 68 109 12.0 23.0 0.00 0.00 0.00 73 1014.7
20260503090404 65 182 2.0 7.0 0.00 0.00 0.00 83 1016.0
20260503071904 63 125 0.0 1.0 0.00 0.00 0.00 87 1015.6
20260503071404 62 125 1.0 3.0 0.00 0.00 0.00 87 1015.5
20260503054404 62 276 3.0 6.0 0.00 0.00 0.00 88 1014.8
20260503053904 62 259 3.0 7.0 0.00 0.00 0.00 88 1014.8
20260503051404 62 242 2.0 3.0 0.00 0.00 0.00 87 1014.7
20260503050404 62 249 0.0 3.0 0.00 0.00 0.00 87 1014.4
20260503043904 62 22 0.0 0.0 0.00 0.00 0.00 87 1014.8
20260503043403 62 81 0.0 0.0 0.00 0.00 0.00 87 1014.8
20260503041904 62 81 0.0 0.0 0.00 0.00 0.00 87 1015.0
20260503041404 62 81 0.0 0.0 0.00 0.00 0.00 87 1015.1
20260503040404 62 90 0.0 0.0 0.00 0.00 0.00 87 1015.1
20260503033904 62 90 1.0 2.0 0.00 0.00 0.00 87 1015.3
20260503033404 62 103 2.0 3.0 0.00 0.00 0.00 87 1015.2
20260503031904 62 117 2.0 3.0 0.00 0.00 0.00 87 1015.3
20260503031403 62 122 2.0 3.0 0.00 0.00 0.00 87 1015.3
20260503030404 62 109 2.0 3.0 0.00 0.00 0.00 86 1015.3
20260503023403 62 236 0.0 2.0 0.00 0.00 0.00 86 1015.3
20260503021403 62 230 2.0 3.0 0.00 0.00 0.00 86 1015.4
20260503020904 62 246 1.0 3.0 0.00 0.00 0.00 86 1015.5
20260503020404 62 235 1.0 3.0 0.00 0.00 0.00 86 1015.4
20260503014904 62 313 1.0 3.0 0.00 0.00 0.00 86 1015.4
20260503013904 62 338 2.0 3.0 0.00 0.00 0.00 87 1015.4
20260503011904 62 5 2.0 3.0 0.00 0.00 0.00 87 1015.7
20260503011404 62 334 1.0 2.0 0.00 0.00 0.00 87 1015.8
20260503010404 62 355 0.0 2.0 0.00 0.00 0.00 86 1016.0
20260503003404 62 243 2.0 3.0 0.00 0.00 0.00 85 1016.5
20260503001903 62 266 2.0 3.0 0.00 0.00 0.00 85 1016.6
20260503001404 62 249 0.0 0.0 0.00 0.00 0.00 86 1016.6
20260503000905 62 246 0.0 0.0 0.00 0.00 0.00 85 1016.7